Aberdeen / Amory, MS

9:27 PM CDT on October 19, 2017 (GMT -0500)
Aberdeen / Amory

Weather History for KM40 - June, 2012

Change the Weather History Date:

Sunday, June 10, 2012

  Actual Average (KCBM) Record (KCBM)
Temperature  
Mean Temperature 73 °F -  
Max Temperature 78 °F 84 °F 95 °F (2011)
Min Temperature 68 °F 66 °F 59 °F (2017)
Cooling Degree Days 8    
Growing Degree Days 23 (Base 50)    
Moisture  
Dew Point 56 °F    
Average Humidity 55    
Maximum Humidity 57    
Minimum Humidity 53    
Precipitation  
Precipitation 0.06 in - - ()
Sea Level Pressure  
Sea Level Pressure 29.93 in    
Wind  
Wind Speed 3 mph ()    
Max Wind Speed 12 mph    
Max Gust Speed -    
Visibility 8.4 miles    
Events Rain    
Averages and records for this station are not official NWS values.
T = Trace of Precipitation, MM = Missing Value Source: Averaged Metar Reports

Daily Weather History Graph

Daily Weather History Graph

Search for Another Location

Airport or City:

Trip Planner

Search our weather history database for the weather conditions in past years. The results will help you decide how hot, cold, wet, or windy it might be!

Date:

Astronomy

Jun. 10, 2012 Rise Set
Actual Time 5:42 AM CDT 8:04 PM CDT
Civil Twilight 5:13 AM CDT 8:33 PM CDT
Nautical Twilight 4:37 AM CDT 9:09 PM CDT
Astronomical Twilight 3:58 AM CDT 9:48 PM CDT
Moon 12:12 AM CDT (6/10) 12:14 PM CDT (6/10)
Length of Visible Light 15h 20m
Length of Day
14h 22m
Waning Gibbous, 58% of the Moon is Illuminated
Jun 10
Waning Gibbous
Jun 11
Last Quarter
Jun 19
New
Jun 26
First Quarter
Jul 3
Full

Hourly Weather History & Observations

Time (CDT) Temp. Dew Point Humidity Pressure Visibility Wind Dir Wind Speed Gust Speed Precip Events Conditions
12:15 AM 69.8 °F 51.8 °F 53% 29.94 in 9.0 mi Calm Calm - N/A   Overcast
12:35 AM 68.0 °F 51.8 °F 56% 29.94 in 10.0 mi Calm Calm - N/A   Overcast
12:55 AM 68.0 °F 51.8 °F 56% 29.93 in 10.0 mi Calm Calm - N/A   Overcast
1:15 AM 68.0 °F 51.8 °F 56% 29.93 in 10.0 mi Calm Calm - N/A   Overcast
1:35 AM 69.8 °F 51.8 °F 53% 29.92 in 10.0 mi Calm Calm - N/A   Overcast
1:55 AM 69.8 °F 51.8 °F 53% 29.92 in 10.0 mi Calm Calm - N/A   Overcast
2:15 AM 69.8 °F 51.8 °F 53% 29.92 in 10.0 mi Calm Calm - N/A   Overcast
2:35 AM 69.8 °F 51.8 °F 53% 29.92 in 10.0 mi SE 4.6 mph - N/A   Overcast
2:55 AM 69.8 °F 53.6 °F 56% 29.91 in 10.0 mi SE 4.6 mph - N/A   Overcast
3:15 AM 69.8 °F 53.6 °F 56% 29.92 in 10.0 mi SSE 5.8 mph - N/A   Overcast
3:35 AM 69.8 °F 53.6 °F 56% 29.92 in 10.0 mi SSE 6.9 mph - N/A   Overcast
3:55 AM 69.8 °F 51.8 °F 53% 29.91 in 2.5 mi SE 4.6 mph - N/A   Light Drizzle
4:15 AM 69.8 °F 51.8 °F 53% 29.92 in 4.0 mi SE 4.6 mph - N/A   Haze
4:35 AM 69.8 °F 51.8 °F 53% 29.92 in 5.0 mi SSE 3.5 mph - N/A   Haze
5:15 AM 69.8 °F 51.8 °F 53% 29.92 in 9.0 mi SSE 3.5 mph - N/A   Overcast
5:35 AM 69.8 °F 53.6 °F 56% 29.93 in 9.0 mi SE 5.8 mph - N/A   Overcast
5:55 AM 69.8 °F 53.6 °F 56% 29.93 in 9.0 mi SE 3.5 mph - N/A   Overcast
6:15 AM 69.8 °F 53.6 °F 56% 29.93 in 8.0 mi SE 3.5 mph - N/A   Overcast
6:35 AM 69.8 °F 53.6 °F 56% 29.93 in 7.0 mi ESE 3.5 mph - N/A   Overcast
6:55 AM 69.8 °F 53.6 °F 56% 29.93 in 8.0 mi Calm Calm - N/A   Overcast
7:15 AM 71.6 °F 53.6 °F 53% 29.94 in 8.0 mi SE 3.5 mph - N/A   Overcast
7:35 AM 71.6 °F 53.6 °F 53% 29.94 in 9.0 mi SE 6.9 mph - N/A   Overcast
7:55 AM 71.6 °F 53.6 °F 53% 29.94 in 9.0 mi Calm Calm - N/A   Overcast
8:15 AM 71.6 °F 55.4 °F 57% 29.95 in 9.0 mi SSE 4.6 mph - N/A   Overcast
8:55 AM 73.4 °F 57.2 °F 57% 29.96 in 8.0 mi SE 5.8 mph - N/A   Overcast
9:15 AM 73.4 °F 57.2 °F 57% 29.96 in 9.0 mi SE 6.9 mph - N/A   Overcast
9:35 AM 75.2 °F 59.0 °F 57% 29.95 in 8.0 mi SE 6.9 mph - N/A   Overcast
9:55 AM 75.2 °F 59.0 °F 57% 29.96 in 8.0 mi SE 6.9 mph - N/A   Overcast
10:15 AM 75.2 °F 59.0 °F 57% 29.96 in 9.0 mi SE 6.9 mph - N/A   Overcast
10:35 AM 77.0 °F 59.0 °F 54% 29.96 in 8.0 mi SE 5.8 mph - N/A   Overcast
10:55 AM 77.0 °F 59.0 °F 54% 29.95 in 9.0 mi SE 6.9 mph - N/A   Overcast
11:15 AM 75.2 °F 59.0 °F 57% 29.95 in 3.0 mi SE 4.6 mph - N/A Rain Light Rain
11:55 AM 77.0 °F 60.8 °F 57% 29.95 in 7.0 mi SE 4.6 mph - 0.04 in   Mostly Cloudy
12:15 PM 77.0 °F 60.8 °F 57% 29.95 in 8.0 mi SSE 6.9 mph - N/A   Mostly Cloudy
12:35 PM 77.0 °F 60.8 °F 57% 29.95 in 8.0 mi ESE 4.6 mph - N/A   Mostly Cloudy
1:15 PM 78.8 °F 60.8 °F 54% 29.94 in 3.0 mi SE 4.6 mph - N/A   Haze
1:35 PM 77.0 °F 59.0 °F 54% 29.93 in 2.5 mi ESE 4.6 mph - N/A   Haze
1:55 PM 75.2 °F 59.0 °F 57% 29.93 in 1.5 mi ESE 4.6 mph - 0.01 in Rain Heavy Rain
2:15 PM 75.2 °F 57.2 °F 53% 29.93 in 3.0 mi East 3.5 mph - N/A Rain Heavy Rain
2:35 PM 75.2 °F 57.2 °F 53% 29.93 in 7.0 mi Calm Calm - 0.01 in   Mostly Cloudy
2:55 PM 75.2 °F 57.2 °F 53% 29.93 in 8.0 mi SSE 4.6 mph - 0.01 in   Mostly Cloudy
3:15 PM 75.2 °F 57.2 °F 53% 29.92 in 6.0 mi South 8.1 mph - N/A   Light Drizzle
3:55 PM 77.0 °F 60.8 °F 57% 29.92 in 8.0 mi South 6.9 mph - N/A   Mostly Cloudy
4:15 PM 78.8 °F 60.8 °F 54% 29.92 in 10.0 mi SSE 11.5 mph - N/A   Mostly Cloudy
4:35 PM 77.0 °F 60.8 °F 57% 29.92 in 9.0 mi SSE 5.8 mph - N/A   Mostly Cloudy
4:55 PM 78.8 °F 60.8 °F 54% 29.92 in 10.0 mi South 5.8 mph - N/A   Mostly Cloudy
5:15 PM 78.8 °F 60.8 °F 54% 29.93 in 9.0 mi South 6.9 mph - N/A   Scattered Clouds
5:35 PM 77.0 °F 60.8 °F 57% 29.93 in 9.0 mi SSE 5.8 mph - N/A   Mostly Cloudy
5:55 PM 77.0 °F 60.8 °F 57% 29.93 in 10.0 mi SSE 6.9 mph - N/A   Partly Cloudy
6:15 PM 77.0 °F 60.8 °F 57% 29.93 in 10.0 mi South 8.1 mph - N/A   Clear
6:35 PM 77.0 °F 59.0 °F 54% 29.92 in 9.0 mi South 6.9 mph - N/A   Clear
6:55 PM 75.2 °F 59.0 °F 57% 29.92 in 10.0 mi SSE 5.8 mph - N/A   Clear
7:15 PM 75.2 °F 59.0 °F 57% 29.92 in 10.0 mi SSE 4.6 mph - N/A   Partly Cloudy
7:35 PM 75.2 °F 59.0 °F 57% 29.92 in 9.0 mi SSE 6.9 mph - N/A   Partly Cloudy
8:15 PM 73.4 °F 57.2 °F 57% 29.92 in 10.0 mi SSE 4.6 mph - N/A   Scattered Clouds
8:35 PM 73.4 °F 57.2 °F 57% 29.92 in 10.0 mi SSE 3.5 mph - N/A   Scattered Clouds
8:55 PM 73.4 °F 55.4 °F 53% 29.92 in 10.0 mi South 3.5 mph - N/A   Partly Cloudy
9:15 PM 73.4 °F 55.4 °F 53% 29.93 in 10.0 mi Calm Calm - N/A   Mostly Cloudy
9:35 PM 73.4 °F 55.4 °F 53% 29.93 in 10.0 mi SE 3.5 mph - N/A   Overcast
9:55 PM 73.4 °F 55.4 °F 53% 29.94 in 10.0 mi SSE 3.5 mph - N/A   Overcast
10:15 PM 73.4 °F 55.4 °F 53% 29.94 in 10.0 mi SSE 5.8 mph - N/A   Overcast
10:35 PM 73.4 °F 55.4 °F 53% 29.94 in 10.0 mi SE 4.6 mph - N/A   Overcast
10:55 PM 73.4 °F 55.4 °F 53% 29.94 in 10.0 mi SSE 4.6 mph - N/A   Overcast
11:15 PM 73.4 °F 55.4 °F 53% 29.95 in 10.0 mi SSE 4.6 mph - N/A   Mostly Cloudy
11:35 PM 73.4 °F 55.4 °F 53% 29.96 in 10.0 mi SSE 8.1 mph - N/A   Mostly Cloudy
11:55 PM 73.4 °F 55.4 °F 53% 29.95 in 10.0 mi SSE 8.1 mph - N/A   Overcast